This demonstration page uses our WeatherBlox Daily Observations layout. Learn more.

40.92945, -100.16068

Hourly Observations for January 31, 2018

Temp ( °F °C ) Dew Point ( °F °C ) Humidity (%) Winds ( mph kmh ) Pressure ( in mb ) Visibility ( mi km ) Precip ( " mm )
12:15 am 00:15 Clear 35 1.7 30 -1.1 82 82 W 8 13 29.77 1008 10 16.0934 0 0
12:35 am 00:35 Clear 34 1.1 29 -1.5 83 83 WNW 7 11 29.77 1008 10 16.0934 0 0
12:55 am 00:55 Clear 37 2.7 30 -1 77 77 NW 8 13 29.8 1009 10 16.0934 0 0
2:35 am 02:35 Clear 38 3.6 29 -1.5 70 70 N 22 35 29.83 1010 10 16.0934 0 0
2:55 am 02:55 Clear 38 3.5 30 -1.2 72 72 N 23 37 29.85 1011 10 16.0934 0 0
3:15 am 03:15 Clear 38 3.2 30 -1 74 74 N 18 30 29.85 1011 10 16.0934 0 0
3:35 am 03:35 Clear 38 3.2 30 -1 74 74 N 18 30 29.88 1012 10 16.0934 0 0
3:55 am 03:55 Clear 37 3 30 -1 75 75 N 15 24 29.88 1012 10 16.0934 0 0
4:15 am 04:15 Clear 38 3.1 30 -0.9 75 75 N 14 22 29.91 1013 10 16.0934 0 0
4:35 am 04:35 Clear 37 2.7 30 -1 77 77 N 14 22 29.91 1013 10 16.0934 0 0
4:55 am 04:55 Clear 37 2.6 30 -1.2 76 76 N 10 17 29.91 1013 10 16.0934 0 0
5:15 am 05:15 Clear 35 1.9 29 -1.5 78 78 N 8 13 29.94 1014 10 16.0934 0 0
5:35 am 05:35 Clear 34 1 29 -1.9 81 81 NW 5 7 29.97 1015 10 16.0934 0 0
5:55 am 05:55 Clear 33 0.8 29 -1.9 82 82 NNW 6 9 29.97 1015 10 16.0934 0 0
6:15 am 06:15 Clear 33 0.5 28 -2.1 83 83 NW 6 9 29.97 1015 10 16.0934 0 0
6:35 am 06:35 Clear 35 1.5 29 -1.6 80 80 NNW 6 9 29.97 1015 10 16.0934 0 0
6:55 am 06:55 Clear 35 1.8 29 -1.7 78 78 NNW 9 15 29.97 1015 10 16.0934 0 0
7:15 am 07:15 Clear 35 1.5 29 -1.7 80 80 NNW 14 22 29.94 1014 10 16.0934 0 0
7:35 am 07:35 Clear 35 1.7 29 -1.6 79 79 NNW 12 19 29.97 1015 10 16.0934 0 0
7:55 am 07:55 Sunny 35 1.5 29 -1.8 79 79 NNW 8 13 29.97 1015 10 16.0934 0 0
8:15 am 08:15 Sunny 34 1 28 -2 81 81 WNW 5 7 29.97 1015 10 16.0934 0 0
8:35 am 08:35 Sunny 33 0.6 28 -2 83 83 NNW 6 9 29.97 1015 10 16.0934 0 0
8:55 am 08:55 Sunny 32 0.1 28 -2.3 84 84 W 6 9 29.97 1015 10 16.0934 0 0
9:15 am 09:15 Sunny 34 1 29 -1.6 83 83 W 6 9 29.97 1015 10 16.0934 0 0
9:35 am 09:35 Sunny 36 2 30 -1.2 80 80 WSW 6 9 30 1016 10 16.0934 0 0
9:55 am 09:55 Sunny 37 2.5 30 -1.2 77 77 W 8 13 30 1016 10 16.0934 0 0
10:15 am 10:15 Sunny 37 2.8 29 -1.4 74 74 W 7 11 30 1016 10 16.0934 0 0
10:35 am 10:35 Sunny 38 3.1 29 -1.5 72 72 W 6 9 29.97 1015 10 16.0934 0 0
10:55 am 10:55 Sunny 38 3.1 28 -2 70 70 W 7 11 29.97 1015 10 16.0934 0 0
11:15 am 11:15 Sunny 38 3.3 28 -2.2 68 68 W 7 11 29.97 1015 10 16.0934 0 0
11:35 am 11:35 Sunny 38 3.6 28 -2.5 65 65 W 6 9 29.97 1015 10 16.0934 0 0
11:55 am 11:55 Sunny 39 4 27 -2.7 62 62 W 8 13 29.97 1015 10 16.0934 0 0
12:15 pm 12:15 Sunny 39 4.1 27 -2.9 61 61 W 9 15 30 1016 10 16.0934 0 0
12:35 pm 12:35 Sunny 40 4.4 25 -3.7 56 56 W 8 13 29.97 1015 10 16.0934 0 0
12:55 pm 12:55 Sunny 40 4.6 25 -3.9 54 54 WNW 8 13 29.97 1015 10 16.0934 0 0
1:15 pm 13:15 Sunny 41 4.8 25 -3.9 54 54 W 9 15 29.97 1015 10 16.0934 0 0
1:35 pm 13:35 Sunny 41 5.1 24 -4.6 50 50 NW 6 9 29.97 1015 10 16.0934 0 0
1:55 pm 13:55 Sunny 41 5.1 27 -2.6 58 58 W 10 17 29.94 1014 10 16.0934 0 0
2:15 pm 14:15 Sunny 42 5.4 28 -2.4 58 58 W 13 20 29.94 1014 10 16.0934 0 0
2:35 pm 14:35 Sunny 43 5.9 27 -3 53 53 W 13 20 29.97 1015 10 16.0934 0 0
2:55 pm 14:55 Sunny 42 5.6 27 -2.6 56 56 WNW 13 20 29.97 1015 10 16.0934 0 0
3:15 pm 15:15 Sunny 44 6.4 27 -2.6 53 53 WNW 10 17 29.94 1014 10 16.0934 0 0
3:35 pm 15:35 Sunny 43 6.3 27 -2.8 53 53 WNW 7 11 29.94 1014 10 16.0934 0 0
3:55 pm 15:55 Sunny 44 6.5 27 -2.7 52 52 NW 12 19 29.94 1014 10 16.0934 0 0
4:15 pm 16:15 Sunny 45 7 28 -2.3 52 52 NW 10 17 29.94 1014 10 16.0934 0 0
4:35 pm 16:35 Sunny 43 6.3 28 -2.1 55 55 NW 8 13 29.94 1014 10 16.0934 0 0
4:55 pm 16:55 Sunny 43 6 29 -1.7 58 58 NW 7 11 29.94 1014 10 16.0934 0 0
5:15 pm 17:15 Sunny 41 5.2 29 -1.4 63 63 NW 8 13 29.97 1015 10 16.0934 0 0
5:35 pm 17:35 Mostly Cloudy 40 4.6 30 -1.1 67 67 NW 6 9 30 1016 10 16.0934 0 0
6:15 pm 18:15 Cloudy 39 3.8 30 -1.1 71 71 NNW 12 19 30.03 1017 10 16.0934 0 0
6:35 pm 18:35 Cloudy 38 3.5 29 -1.4 71 71 NNW 10 17 30.03 1017 10 16.0934 0 0
6:55 pm 18:55 Cloudy 38 3.1 29 -1.6 72 72 N 12 19 30.06 1018 10 16.0934 0 0
7:15 pm 19:15 Cloudy 37 3 29 -1.7 72 72 NNW 6 9 30.06 1018 10 16.0934 0 0
7:35 pm 19:35 Cloudy 37 2.5 29 -1.5 75 75 NW 5 7 30.06 1018 10 16.0934 0 0
7:55 pm 19:55 Mostly Cloudy 35 1.7 29 -1.7 78 78 NW 8 13 30.06 1018 10 16.0934 0 0
8:15 pm 20:15 Mostly Cloudy 35 1.4 29 -1.7 80 80 WNW 7 11 30.09 1019 10 16.0934 0 0
8:35 pm 20:35 Partly Cloudy 35 1.5 29 -1.6 80 80 W 7 11 30.09 1019 10 16.0934 0 0
8:55 pm 20:55 Mostly Cloudy 34 1.3 29 -1.5 82 82 W 7 11 30.09 1019 10 16.0934 0 0
9:15 pm 21:15 Cloudy 35 1.6 30 -1.3 81 81 WNW 7 11 30.09 1019 10 16.0934 0 0
9:35 pm 21:35 Mostly Cloudy 34 1.3 29 -1.5 82 82 W 7 11 30.09 1019 10 16.0934 0 0
9:55 pm 21:55 Partly Cloudy 34 1.1 29 -1.6 82 82 WNW 7 11 30.09 1019 10 16.0934 0 0
10:15 pm 22:15 Mostly Cloudy 35 1.6 29 -1.5 80 80 WNW 9 15 30.12 1020 10 16.0934 0 0
10:35 pm 22:35 Cloudy 35 1.4 29 -1.5 81 81 WNW 6 9 30.12 1020 10 16.0934 0 0
10:55 pm 22:55 Cloudy 34 1.2 29 -1.6 82 82 NW 8 13 30.12 1020 10 16.0934 0 0
11:15 pm 23:15 Cloudy 35 1.8 29 -1.7 78 78 NW 9 15 30.12 1020 10 16.0934 0 0
11:35 pm 23:35 Cloudy 35 1.5 29 -1.6 80 80 NW 9 15 30.12 1020 10 16.0934 0 0
11:55 pm 23:55 Cloudy 34 1.3 29 -1.6 81 81 NW 9 15 30.12 1020 10 16.0934 0 0

Powered by AerisWeather